Year,Month,Day,Hour,Minute,Value (Times are PST for temperature in C)
2014,05,01,00,00,11.30
2014,05,01,00,01,11.30
2014,05,01,00,02,11.30
2014,05,01,00,03,11.20
2014,05,01,00,04,11.20
2014,05,01,00,05,11.20
2014,05,01,00,06,11.20
2014,05,01,00,07,11.10
2014,05,01,00,08,11.10
2014,05,01,00,09,11.10
2014,05,01,00,10,11.00
2014,05,01,00,11,11.00
2014,05,01,00,12,10.90
2014,05,01,00,13,10.90
2014,05,01,00,14,10.90
2014,05,01,00,15,10.90
2014,05,01,00,16,10.90
2014,05,01,00,17,10.80
2014,05,01,00,18,10.80
2014,05,01,00,19,10.80
2014,05,01,00,20,10.80
2014,05,01,00,21,10.80
2014,05,01,00,22,10.70
2014,05,01,00,23,10.70
2014,05,01,00,24,10.70
2014,05,01,00,25,10.70
2014,05,01,00,26,10.70
2014,05,01,00,27,10.60
2014,05,01,00,28,10.60
2014,05,01,00,29,10.60
2014,05,01,00,30,10.60
2014,05,01,00,31,10.60
2014,05,01,00,32,10.60
2014,05,01,00,33,10.60
2014,05,01,00,34,10.50
2014,05,01,00,35,10.50
2014,05,01,00,36,10.50
2014,05,01,00,37,10.50
2014,05,01,00,38,10.40
2014,05,01,00,39,10.40
2014,05,01,00,40,10.40
2014,05,01,00,41,10.40
2014,05,01,00,42,10.40
2014,05,01,00,43,10.30
2014,05,01,00,44,10.30
2014,05,01,00,45,10.30
2014,05,01,00,46,10.30
2014,05,01,00,47,10.30
2014,05,01,00,48,10.30
2014,05,01,00,49,10.30
2014,05,01,00,50,10.30
2014,05,01,00,51,10.20
2014,05,01,00,52,10.20
2014,05,01,00,53,10.20
2014,05,01,00,54,10.20
2014,05,01,00,55,10.20
2014,05,01,00,56,10.20
2014,05,01,00,57,10.20
2014,05,01,00,58,10.20
2014,05,01,00,59,10.20
2014,05,01,01,00,10.10
2014,05,01,01,01,10.10
2014,05,01,01,02,10.10
2014,05,01,01,03,10.10
2014,05,01,01,04,10.10
2014,05,01,01,05,10.10
2014,05,01,01,06,10.10
2014,05,01,01,07,10.10
2014,05,01,01,08,10.10
2014,05,01,01,09,10.10
2014,05,01,01,10,10.00
2014,05,01,01,11,10.00
2014,05,01,01,12,10.00
2014,05,01,01,13,10.00
2014,05,01,01,14,9.90
2014,05,01,01,15,9.90
2014,05,01,01,16,9.90
2014,05,01,01,17,9.90
2014,05,01,01,18,9.90
2014,05,01,01,19,9.90
2014,05,01,01,20,9.80
2014,05,01,01,21,9.80
2014,05,01,01,22,9.80
2014,05,01,01,23,9.80
2014,05,01,01,24,9.80
2014,05,01,01,25,9.80
2014,05,01,01,26,9.80
2014,05,01,01,27,9.80
2014,05,01,01,28,9.70
2014,05,01,01,29,9.70
2014,05,01,01,30,9.70
2014,05,01,01,31,9.70
2014,05,01,01,32,9.70
2014,05,01,01,33,9.60
2014,05,01,01,34,9.60
2014,05,01,01,35,9.60
2014,05,01,01,36,9.60
2014,05,01,01,37,9.60
2014,05,01,01,38,9.50
2014,05,01,01,39,9.50
2014,05,01,01,40,9.50
2014,05,01,01,41,9.50
2014,05,01,01,42,9.40
2014,05,01,01,43,9.40
2014,05,01,01,44,9.40
2014,05,01,01,45,9.40
2014,05,01,01,46,9.40
2014,05,01,01,47,9.40
2014,05,01,01,48,9.40
2014,05,01,01,49,9.40
2014,05,01,01,50,9.40
2014,05,01,01,51,9.30
2014,05,01,01,52,9.30
2014,05,01,01,53,9.30
2014,05,01,01,54,9.30
2014,05,01,01,55,9.30
2014,05,01,01,56,9.30
2014,05,01,01,57,9.30
2014,05,01,01,58,9.30
2014,05,01,01,59,9.20
2014,05,01,02,00,9.20
2014,05,01,02,01,9.20
2014,05,01,02,02,9.20
2014,05,01,02,03,9.20
2014,05,01,02,04,9.20
2014,05,01,02,05,9.20
2014,05,01,02,06,9.20
2014,05,01,02,07,9.10
2014,05,01,02,08,9.10
2014,05,01,02,09,9.10
2014,05,01,02,10,9.10
2014,05,01,02,11,9.00
2014,05,01,02,12,9.00
2014,05,01,02,13,9.00
2014,05,01,02,14,9.00
2014,05,01,02,15,8.90
2014,05,01,02,16,8.90
2014,05,01,02,17,8.90
2014,05,01,02,18,8.90
2014,05,01,02,19,8.90
2014,05,01,02,20,8.90
2014,05,01,02,21,8.80
2014,05,01,02,22,8.80
2014,05,01,02,23,8.80
2014,05,01,02,24,8.80
2014,05,01,02,25,8.80
2014,05,01,02,26,8.80
2014,05,01,02,27,8.80
2014,05,01,02,28,8.80
2014,05,01,02,29,8.80
2014,05,01,02,30,8.80
2014,05,01,02,31,8.80
2014,05,01,02,32,8.70
2014,05,01,02,33,8.70
2014,05,01,02,34,8.70
2014,05,01,02,35,8.70
2014,05,01,02,36,8.70
2014,05,01,02,37,8.70
2014,05,01,02,38,8.70
2014,05,01,02,39,8.70
2014,05,01,02,40,8.70
2014,05,01,02,41,8.70
2014,05,01,02,42,8.70
2014,05,01,02,43,8.70
2014,05,01,02,44,8.60
2014,05,01,02,45,8.60
2014,05,01,02,46,8.60
2014,05,01,02,47,8.60
2014,05,01,02,48,8.60
2014,05,01,02,49,8.60
2014,05,01,02,50,8.60
2014,05,01,02,51,8.50
2014,05,01,02,52,8.50
2014,05,01,02,53,8.50
2014,05,01,02,54,8.50
2014,05,01,02,55,8.50
2014,05,01,02,56,8.50
2014,05,01,02,57,8.50
2014,05,01,02,58,8.50
2014,05,01,02,59,8.50
2014,05,01,03,00,8.40
2014,05,01,03,01,8.40
2014,05,01,03,02,8.40
2014,05,01,03,03,8.40
2014,05,01,03,04,8.40
2014,05,01,03,05,8.40
2014,05,01,03,06,8.40
2014,05,01,03,07,8.40
2014,05,01,03,08,8.30
2014,05,01,03,09,8.30
2014,05,01,03,10,8.30
2014,05,01,03,11,8.30
2014,05,01,03,12,8.30
2014,05,01,03,13,8.30
2014,05,01,03,14,8.30
2014,05,01,03,15,8.30
2014,05,01,03,16,8.30
2014,05,01,03,17,8.30
2014,05,01,03,18,8.30
2014,05,01,03,19,8.30
2014,05,01,03,20,8.30
2014,05,01,03,21,8.20
2014,05,01,03,22,8.20
2014,05,01,03,23,8.20
2014,05,01,03,24,8.20
2014,05,01,03,25,8.20
2014,05,01,03,26,8.20
2014,05,01,03,27,8.20
2014,05,01,03,28,8.20
2014,05,01,03,29,8.20
2014,05,01,03,30,8.20
2014,05,01,03,31,8.20
2014,05,01,03,32,8.10
2014,05,01,03,33,8.10
2014,05,01,03,34,8.10
2014,05,01,03,35,8.10
2014,05,01,03,36,8.10
2014,05,01,03,37,8.10
2014,05,01,03,38,8.10
2014,05,01,03,39,8.10
2014,05,01,03,40,8.10
2014,05,01,03,41,8.00
2014,05,01,03,42,8.10
2014,05,01,03,43,8.00
2014,05,01,03,44,8.00
2014,05,01,03,45,8.00
2014,05,01,03,46,8.00
2014,05,01,03,47,8.00
2014,05,01,03,48,8.00
2014,05,01,03,49,8.00
2014,05,01,03,50,8.00
2014,05,01,03,51,8.00
2014,05,01,03,52,8.00
2014,05,01,03,53,8.00
2014,05,01,03,54,8.00
2014,05,01,03,55,8.00
2014,05,01,03,56,8.00
2014,05,01,03,57,8.00
2014,05,01,03,58,8.00
2014,05,01,03,59,8.00
2014,05,01,04,00,8.00
2014,05,01,04,01,7.90
2014,05,01,04,02,7.90
2014,05,01,04,03,7.90
2014,05,01,04,04,7.90
2014,05,01,04,05,7.90
2014,05,01,04,06,7.90
2014,05,01,04,07,7.90
2014,05,01,04,08,7.90
2014,05,01,04,09,7.90
2014,05,01,04,10,7.90
2014,05,01,04,11,7.90
2014,05,01,04,12,7.90
2014,05,01,04,13,7.80
2014,05,01,04,14,7.80
2014,05,01,04,15,7.80
2014,05,01,04,16,7.80
2014,05,01,04,17,7.80
2014,05,01,04,18,7.80
2014,05,01,04,19,7.80
2014,05,01,04,20,7.80
2014,05,01,04,21,7.80
2014,05,01,04,22,7.80
2014,05,01,04,23,7.80
2014,05,01,04,24,7.80
2014,05,01,04,25,7.80
2014,05,01,04,26,7.80
2014,05,01,04,27,7.80
2014,05,01,04,28,7.80
2014,05,01,04,29,7.80
2014,05,01,04,30,7.80
2014,05,01,04,31,7.80
2014,05,01,04,32,7.80
2014,05,01,04,33,7.80
2014,05,01,04,34,7.80
2014,05,01,04,35,7.80
2014,05,01,04,36,7.70
2014,05,01,04,37,7.80
2014,05,01,04,38,7.70
2014,05,01,04,39,7.70
2014,05,01,04,40,7.80
2014,05,01,04,41,7.80
2014,05,01,04,42,7.80
2014,05,01,04,43,7.80
2014,05,01,04,44,7.70
2014,05,01,04,45,7.70
2014,05,01,04,46,7.70
2014,05,01,04,47,7.70
2014,05,01,04,48,7.70
2014,05,01,04,49,7.70
2014,05,01,04,50,7.70
2014,05,01,04,51,7.70
2014,05,01,04,52,7.70
2014,05,01,04,53,7.70
2014,05,01,04,54,7.70
2014,05,01,04,55,7.70
2014,05,01,04,56,7.70
2014,05,01,04,57,7.70
2014,05,01,04,58,7.70
2014,05,01,04,59,7.70
2014,05,01,05,00,7.60
2014,05,01,05,01,7.60
2014,05,01,05,02,7.60
2014,05,01,05,03,7.60
2014,05,01,05,04,7.60
2014,05,01,05,05,7.60
2014,05,01,05,06,7.60
2014,05,01,05,07,7.60
2014,05,01,05,08,7.60
2014,05,01,05,09,7.60
2014,05,01,05,10,7.60
2014,05,01,05,11,7.60
2014,05,01,05,12,7.60
2014,05,01,05,13,7.60
2014,05,01,05,14,7.60
2014,05,01,05,15,7.60
2014,05,01,05,16,7.60
2014,05,01,05,17,7.60
2014,05,01,05,18,7.60
2014,05,01,05,19,7.60
2014,05,01,05,20,7.50
2014,05,01,05,21,7.50
2014,05,01,05,22,7.50
2014,05,01,05,23,7.50
2014,05,01,05,24,7.50
2014,05,01,05,25,7.50
2014,05,01,05,26,7.50
2014,05,01,05,27,7.50
2014,05,01,05,28,7.50
2014,05,01,05,29,7.50
2014,05,01,05,30,7.50
2014,05,01,05,31,7.40
2014,05,01,05,32,7.40
2014,05,01,05,33,7.40
2014,05,01,05,34,7.40
2014,05,01,05,35,7.40
2014,05,01,05,36,7.40
2014,05,01,05,37,7.40
2014,05,01,05,38,7.40
2014,05,01,05,39,7.40
2014,05,01,05,40,7.40
2014,05,01,05,41,7.40
2014,05,01,05,42,7.40
2014,05,01,05,43,7.40
2014,05,01,05,44,7.40
2014,05,01,05,45,7.40
2014,05,01,05,46,7.40
2014,05,01,05,47,7.40
2014,05,01,05,48,7.40
2014,05,01,05,49,7.40
2014,05,01,05,50,7.40
2014,05,01,05,51,7.40
2014,05,01,05,52,7.40
2014,05,01,05,53,7.40
2014,05,01,05,54,7.40
2014,05,01,05,55,7.40
2014,05,01,05,56,7.40
2014,05,01,05,57,7.40
2014,05,01,05,58,7.40
2014,05,01,05,59,7.40
2014,05,01,06,00,7.30
2014,05,01,06,01,7.30
2014,05,01,06,02,7.30
2014,05,01,06,03,7.30
2014,05,01,06,04,7.30
2014,05,01,06,05,7.30
2014,05,01,06,06,7.30
2014,05,01,06,07,7.30
2014,05,01,06,08,7.30
2014,05,01,06,09,7.30
2014,05,01,06,10,7.30
2014,05,01,06,11,7.30
2014,05,01,06,12,7.30
2014,05,01,06,13,7.30
2014,05,01,06,14,7.30
2014,05,01,06,15,7.30
2014,05,01,06,16,7.30
2014,05,01,06,17,7.30
2014,05,01,06,18,7.30
2014,05,01,06,19,7.30
2014,05,01,06,20,7.30
2014,05,01,06,21,7.30
2014,05,01,06,22,7.30
2014,05,01,06,23,7.30
2014,05,01,06,24,7.30
2014,05,01,06,25,7.30
2014,05,01,06,26,7.20
2014,05,01,06,27,7.20
2014,05,01,06,28,7.20
2014,05,01,06,29,7.20
2014,05,01,06,30,7.20
2014,05,01,06,31,7.20
2014,05,01,06,32,7.20
2014,05,01,06,33,7.20
2014,05,01,06,34,7.20
2014,05,01,06,35,7.20
2014,05,01,06,36,7.20
2014,05,01,06,37,7.20
2014,05,01,06,38,7.20
2014,05,01,06,39,7.20
2014,05,01,06,40,7.20
2014,05,01,06,41,7.20
2014,05,01,06,42,7.20
2014,05,01,06,43,7.20
2014,05,01,06,44,7.20
2014,05,01,06,45,7.20
2014,05,01,06,46,7.20
2014,05,01,06,47,7.20
2014,05,01,06,48,7.20
2014,05,01,06,49,7.20
2014,05,01,06,50,7.20
2014,05,01,06,51,7.20
2014,05,01,06,52,7.20
2014,05,01,06,53,7.20
2014,05,01,06,54,7.20
2014,05,01,06,55,7.20
2014,05,01,06,56,7.20
2014,05,01,06,57,7.20
2014,05,01,06,58,7.20
2014,05,01,06,59,7.20
2014,05,01,07,00,7.20
2014,05,01,07,01,7.20
2014,05,01,07,02,7.20
2014,05,01,07,03,7.20
2014,05,01,07,04,7.20
2014,05,01,07,05,7.20
2014,05,01,07,06,7.20
2014,05,01,07,07,7.20
2014,05,01,07,08,7.20
2014,05,01,07,09,7.20
2014,05,01,07,10,7.20
2014,05,01,07,11,7.20
2014,05,01,07,12,7.20
2014,05,01,07,13,7.20
2014,05,01,07,14,7.20
2014,05,01,07,15,7.20
2014,05,01,07,16,7.20
2014,05,01,07,17,7.20
2014,05,01,07,18,7.20
2014,05,01,07,19,7.20
2014,05,01,07,20,7.20
2014,05,01,07,21,7.20
2014,05,01,07,22,7.20
2014,05,01,07,23,7.30
2014,05,01,07,24,7.30
2014,05,01,07,25,7.30
2014,05,01,07,26,7.30
2014,05,01,07,27,7.30
2014,05,01,07,28,7.30
2014,05,01,07,29,7.30
2014,05,01,07,30,7.30
2014,05,01,07,31,7.30
2014,05,01,07,32,7.30
2014,05,01,07,33,7.30
2014,05,01,07,34,7.40
2014,05,01,07,35,7.40
2014,05,01,07,36,7.40
2014,05,01,07,37,7.40
2014,05,01,07,38,7.40
2014,05,01,07,39,7.50
2014,05,01,07,40,7.50
2014,05,01,07,41,7.50
2014,05,01,07,42,7.60
2014,05,01,07,43,7.60
2014,05,01,07,44,7.60
2014,05,01,07,45,7.70
2014,05,01,07,46,7.70
2014,05,01,07,47,7.80
2014,05,01,07,48,7.80
2014,05,01,07,49,7.80
2014,05,01,07,50,7.90
2014,05,01,07,51,7.90
2014,05,01,07,52,8.00
2014,05,01,07,53,8.00
2014,05,01,07,54,8.10
2014,05,01,07,55,8.20
2014,05,01,07,56,8.20
2014,05,01,07,57,8.30
2014,05,01,07,58,8.40
2014,05,01,07,59,8.50
2014,05,01,08,00,8.60
2014,05,01,08,01,8.70
2014,05,01,08,02,8.80
2014,05,01,08,03,8.90
2014,05,01,08,04,9.00
2014,05,01,08,05,9.10
2014,05,01,08,06,9.20
2014,05,01,08,07,9.30
2014,05,01,08,08,9.40
2014,05,01,08,09,9.60
2014,05,01,08,10,9.70
2014,05,01,08,11,9.80
2014,05,01,08,12,10.00
2014,05,01,08,13,10.10
2014,05,01,08,14,10.20
2014,05,01,08,15,10.30
2014,05,01,08,16,10.50
2014,05,01,08,17,10.60
2014,05,01,08,18,10.70
2014,05,01,08,19,10.80
2014,05,01,08,20,10.90
2014,05,01,08,21,11.00
2014,05,01,08,22,11.10
2014,05,01,08,23,11.20
2014,05,01,08,24,11.30
2014,05,01,08,25,11.40
2014,05,01,08,26,11.40
2014,05,01,08,27,11.50
2014,05,01,08,28,11.40
2014,05,01,08,29,11.40
2014,05,01,08,30,11.40
2014,05,01,08,31,11.50
2014,05,01,08,32,11.50
2014,05,01,08,33,11.60
2014,05,01,08,34,11.70
2014,05,01,08,35,11.90
2014,05,01,08,36,12.00
2014,05,01,08,37,12.00
2014,05,01,08,38,12.10
2014,05,01,08,39,12.20
2014,05,01,08,40,12.20
2014,05,01,08,41,12.30
2014,05,01,08,42,12.30
2014,05,01,08,43,12.30
2014,05,01,08,44,12.40
2014,05,01,08,45,12.40
2014,05,01,08,46,12.50
2014,05,01,08,47,12.60
2014,05,01,08,48,12.60
2014,05,01,08,49,12.70
2014,05,01,08,50,12.80
2014,05,01,08,51,12.90
2014,05,01,08,52,13.00
2014,05,01,08,53,13.00
2014,05,01,08,54,13.00
2014,05,01,08,55,13.00
2014,05,01,08,56,12.90
2014,05,01,08,57,12.80
2014,05,01,08,58,12.80
2014,05,01,08,59,12.80
2014,05,01,09,00,12.90
2014,05,01,09,01,13.00
2014,05,01,09,02,13.00
2014,05,01,09,03,13.10
2014,05,01,09,04,13.20
2014,05,01,09,05,13.30
2014,05,01,09,06,13.40
2014,05,01,09,07,13.50
2014,05,01,09,08,13.60
2014,05,01,09,09,13.70
2014,05,01,09,10,13.70
2014,05,01,09,11,13.80
2014,05,01,09,12,13.90
2014,05,01,09,13,14.00
2014,05,01,09,14,14.00
2014,05,01,09,15,14.10
2014,05,01,09,16,14.10
2014,05,01,09,17,14.20
2014,05,01,09,18,14.20
2014,05,01,09,19,14.30
2014,05,01,09,20,14.40
2014,05,01,09,21,14.50
2014,05,01,09,22,14.60
2014,05,01,09,23,14.70
2014,05,01,09,24,14.80
2014,05,01,09,25,14.90
2014,05,01,09,26,15.00
2014,05,01,09,27,15.10
2014,05,01,09,28,15.10
2014,05,01,09,29,15.20
2014,05,01,09,30,15.20
2014,05,01,09,31,15.20
2014,05,01,09,32,15.20
2014,05,01,09,33,15.30
2014,05,01,09,34,15.30
2014,05,01,09,35,15.30
2014,05,01,09,36,15.30
2014,05,01,09,37,15.30
2014,05,01,09,38,15.40
2014,05,01,09,39,15.40
2014,05,01,09,40,15.40
2014,05,01,09,41,15.50
2014,05,01,09,42,15.50
2014,05,01,09,43,15.50
2014,05,01,09,44,15.50
2014,05,01,09,45,15.50
2014,05,01,09,46,15.50
2014,05,01,09,47,15.60
2014,05,01,09,48,15.60
2014,05,01,09,49,15.70
2014,05,01,09,50,15.70
2014,05,01,09,51,15.80
2014,05,01,09,52,15.80
2014,05,01,09,53,15.80
2014,05,01,09,54,15.80
2014,05,01,09,55,15.80
2014,05,01,09,56,15.80
2014,05,01,09,57,15.80
2014,05,01,09,58,15.90
2014,05,01,09,59,16.00
2014,05,01,10,00,16.00
2014,05,01,10,01,16.10
2014,05,01,10,02,16.10
2014,05,01,10,03,16.10
2014,05,01,10,04,16.10
2014,05,01,10,05,16.10
2014,05,01,10,06,16.20
2014,05,01,10,07,16.20
2014,05,01,10,08,16.30
2014,05,01,10,09,16.50
2014,05,01,10,10,16.60
2014,05,01,10,11,16.70
2014,05,01,10,12,16.80
2014,05,01,10,13,16.80
2014,05,01,10,14,16.90
2014,05,01,10,15,17.00
2014,05,01,10,16,17.00
2014,05,01,10,17,17.10
2014,05,01,10,18,17.10
2014,05,01,10,19,17.00
2014,05,01,10,20,17.00
2014,05,01,10,21,17.00
2014,05,01,10,22,16.90
2014,05,01,10,23,16.90
2014,05,01,10,24,16.90
2014,05,01,10,25,16.90
2014,05,01,10,26,16.90
2014,05,01,10,27,16.90
2014,05,01,10,28,16.90
2014,05,01,10,29,16.90
2014,05,01,10,30,16.90
2014,05,01,10,31,16.90
2014,05,01,10,32,16.90
2014,05,01,10,33,17.00
2014,05,01,10,34,17.00
2014,05,01,10,35,17.10
2014,05,01,10,36,17.10
2014,05,01,10,37,17.10
2014,05,01,10,38,17.20
2014,05,01,10,39,17.20
2014,05,01,10,40,17.30
2014,05,01,10,41,17.30
2014,05,01,10,42,17.40
2014,05,01,10,43,17.50
2014,05,01,10,44,17.50
2014,05,01,10,45,17.60
2014,05,01,10,46,17.60
2014,05,01,10,47,17.60
2014,05,01,10,48,17.70
2014,05,01,10,49,17.70
2014,05,01,10,50,17.80
2014,05,01,10,51,17.80
2014,05,01,10,52,17.80
2014,05,01,10,53,17.80
2014,05,01,10,54,17.90
2014,05,01,10,55,17.90
2014,05,01,10,56,17.90
2014,05,01,10,57,18.00
2014,05,01,10,58,18.10
2014,05,01,10,59,18.10
2014,05,01,11,00,18.10
2014,05,01,11,01,18.20
2014,05,01,11,02,18.20
2014,05,01,11,03,18.30
2014,05,01,11,04,18.30
2014,05,01,11,05,18.30
2014,05,01,11,06,18.40
2014,05,01,11,07,18.40
2014,05,01,11,08,18.40
2014,05,01,11,09,18.50
2014,05,01,11,10,18.60
2014,05,01,11,11,18.60
2014,05,01,11,12,18.70
2014,05,01,11,13,18.70
2014,05,01,11,14,18.80
2014,05,01,11,15,18.90
2014,05,01,11,16,18.90
2014,05,01,11,17,19.00
2014,05,01,11,18,19.10
2014,05,01,11,19,19.10
2014,05,01,11,20,19.10
2014,05,01,11,21,19.10
2014,05,01,11,22,19.10
2014,05,01,11,23,19.10
2014,05,01,11,24,19.10
2014,05,01,11,25,19.10
2014,05,01,11,26,19.20
2014,05,01,11,27,19.20
2014,05,01,11,28,19.20
2014,05,01,11,29,19.30
2014,05,01,11,30,19.30
2014,05,01,11,31,19.40
2014,05,01,11,32,19.40
2014,05,01,11,33,19.50
2014,05,01,11,34,19.60
2014,05,01,11,35,19.70
2014,05,01,11,36,19.80
2014,05,01,11,37,19.90
2014,05,01,11,38,19.90
2014,05,01,11,39,20.00
2014,05,01,11,40,20.10
2014,05,01,11,41,20.10
2014,05,01,11,42,20.20
2014,05,01,11,43,20.20
2014,05,01,11,44,20.20
2014,05,01,11,45,20.30
2014,05,01,11,46,20.30
2014,05,01,11,47,20.40
2014,05,01,11,48,20.40
2014,05,01,11,49,20.50
2014,05,01,11,50,20.50
2014,05,01,11,51,20.60
2014,05,01,11,52,20.80
2014,05,01,11,53,20.80
2014,05,01,11,54,20.90
2014,05,01,11,55,21.00
2014,05,01,11,56,21.00
2014,05,01,11,57,21.10
2014,05,01,11,58,21.20
2014,05,01,11,59,21.40
2014,05,01,12,00,21.60
2014,05,01,12,01,21.70
2014,05,01,12,02,21.80
2014,05,01,12,03,21.90
2014,05,01,12,04,21.90
2014,05,01,12,05,21.90
2014,05,01,12,06,22.00
2014,05,01,12,07,22.00
2014,05,01,12,08,21.90
2014,05,01,12,09,21.90
2014,05,01,12,10,21.90
2014,05,01,12,11,21.90
2014,05,01,12,12,22.00
2014,05,01,12,13,22.00
2014,05,01,12,14,22.10
2014,05,01,12,15,22.10
2014,05,01,12,16,22.20
2014,05,01,12,17,22.20
2014,05,01,12,18,22.30
2014,05,01,12,19,22.40
2014,05,01,12,20,22.50
2014,05,01,12,21,22.70
2014,05,01,12,22,22.90
2014,05,01,12,23,23.00
2014,05,01,12,24,23.10
2014,05,01,12,25,23.20
2014,05,01,12,26,23.30
2014,05,01,12,27,23.40
2014,05,01,12,28,23.50
2014,05,01,12,29,23.60
2014,05,01,12,30,23.80
2014,05,01,12,31,23.90
2014,05,01,12,32,24.00
2014,05,01,12,33,24.20
2014,05,01,12,34,24.20
2014,05,01,12,35,24.30
2014,05,01,12,36,24.30
2014,05,01,12,37,24.30
2014,05,01,12,38,24.30
2014,05,01,12,39,24.30
2014,05,01,12,40,24.30
2014,05,01,12,41,24.30
2014,05,01,12,42,24.30
2014,05,01,12,43,24.30
2014,05,01,12,44,24.30
2014,05,01,12,45,24.30
2014,05,01,12,46,24.30
2014,05,01,12,47,24.40
2014,05,01,12,48,24.40
2014,05,01,12,49,24.60
2014,05,01,12,50,24.60
2014,05,01,12,51,24.80
2014,05,01,12,52,24.90
2014,05,01,12,53,25.00
2014,05,01,12,54,25.10
2014,05,01,12,55,25.20
2014,05,01,12,56,25.30
2014,05,01,12,57,25.30
2014,05,01,12,58,25.40
2014,05,01,12,59,25.40
2014,05,01,13,00,25.40
2014,05,01,13,01,25.40
2014,05,01,13,02,25.40
2014,05,01,13,03,25.40
2014,05,01,13,04,25.40
2014,05,01,13,05,25.40
2014,05,01,13,06,25.40
2014,05,01,13,07,25.50
2014,05,01,13,08,25.50
2014,05,01,13,09,25.60
2014,05,01,13,10,25.70
2014,05,01,13,11,25.80
2014,05,01,13,12,25.90
2014,05,01,13,13,26.00
2014,05,01,13,14,26.00
2014,05,01,13,15,26.10
2014,05,01,13,16,26.10
2014,05,01,13,17,26.20
2014,05,01,13,18,26.20
2014,05,01,13,19,26.30
2014,05,01,13,20,26.30
2014,05,01,13,21,26.30
2014,05,01,13,22,26.40
2014,05,01,13,23,26.30
2014,05,01,13,24,26.30
2014,05,01,13,25,26.30
2014,05,01,13,26,26.30
2014,05,01,13,27,26.40
2014,05,01,13,28,26.50
2014,05,01,13,29,26.60
2014,05,01,13,30,26.70
2014,05,01,13,31,26.80
2014,05,01,13,32,26.90
2014,05,01,13,33,27.00
2014,05,01,13,34,27.10
2014,05,01,13,35,27.30
2014,05,01,13,36,27.40
2014,05,01,13,37,27.50
2014,05,01,13,38,27.60
2014,05,01,13,39,27.80
2014,05,01,13,40,27.80
2014,05,01,13,41,27.80
2014,05,01,13,42,27.80
2014,05,01,13,43,27.90
2014,05,01,13,44,27.90
2014,05,01,13,45,28.00
2014,05,01,13,46,28.10
2014,05,01,13,47,28.10
2014,05,01,13,48,28.10
2014,05,01,13,49,28.10
2014,05,01,13,50,28.10
2014,05,01,13,51,28.00
2014,05,01,13,52,28.00
2014,05,01,13,53,28.10
2014,05,01,13,54,28.10
2014,05,01,13,55,28.10
2014,05,01,13,56,28.20
2014,05,01,13,57,28.20
2014,05,01,13,58,28.20
2014,05,01,13,59,28.30
2014,05,01,14,00,28.30
2014,05,01,14,01,28.40
2014,05,01,14,02,28.40
2014,05,01,14,03,28.40
2014,05,01,14,04,28.30
2014,05,01,14,05,28.30
2014,05,01,14,06,28.20
2014,05,01,14,07,28.20
2014,05,01,14,08,28.20
2014,05,01,14,09,28.20
2014,05,01,14,10,28.20
2014,05,01,14,11,28.20
2014,05,01,14,12,28.20
2014,05,01,14,13,28.30
2014,05,01,14,14,28.30
2014,05,01,14,15,28.30
2014,05,01,14,16,28.30
2014,05,01,14,17,28.30
2014,05,01,14,18,28.20
2014,05,01,14,19,28.30
2014,05,01,14,20,28.30
2014,05,01,14,21,28.30
2014,05,01,14,22,28.40
2014,05,01,14,23,28.40
2014,05,01,14,24,28.40
2014,05,01,14,25,28.50
2014,05,01,14,26,28.50
2014,05,01,14,27,28.60
2014,05,01,14,28,28.60
2014,05,01,14,29,28.60
2014,05,01,14,30,28.60
2014,05,01,14,31,28.70
2014,05,01,14,32,28.70
2014,05,01,14,33,28.80
2014,05,01,14,34,28.80
2014,05,01,14,35,28.90
2014,05,01,14,36,28.90
2014,05,01,14,37,28.90
2014,05,01,14,38,29.00
2014,05,01,14,39,29.00
2014,05,01,14,40,29.00
2014,05,01,14,41,29.00
2014,05,01,14,42,29.10
2014,05,01,14,43,29.10
2014,05,01,14,44,29.10
2014,05,01,14,45,29.20
2014,05,01,14,46,29.20
2014,05,01,14,47,29.20
2014,05,01,14,48,29.20
2014,05,01,14,49,29.20
2014,05,01,14,50,29.30
2014,05,01,14,51,29.30
2014,05,01,14,52,29.30
2014,05,01,14,53,29.40
2014,05,01,14,54,29.50
2014,05,01,14,55,29.50
2014,05,01,14,56,29.60
2014,05,01,14,57,29.70
2014,05,01,14,58,29.70
2014,05,01,14,59,29.70
2014,05,01,15,00,29.70
2014,05,01,15,01,29.60
2014,05,01,15,02,29.60
2014,05,01,15,03,29.60
2014,05,01,15,04,29.50
2014,05,01,15,05,29.50
2014,05,01,15,06,29.50
2014,05,01,15,07,29.50
2014,05,01,15,08,29.40
2014,05,01,15,09,29.40
2014,05,01,15,10,29.40
2014,05,01,15,11,29.40
2014,05,01,15,12,29.40
2014,05,01,15,13,29.40
2014,05,01,15,14,29.40
2014,05,01,15,15,29.40
2014,05,01,15,16,29.40
2014,05,01,15,17,29.50
2014,05,01,15,18,29.50
2014,05,01,15,19,29.60
2014,05,01,15,20,29.60
2014,05,01,15,21,29.70
2014,05,01,15,22,29.80
2014,05,01,15,23,29.90
2014,05,01,15,24,30.00
2014,05,01,15,25,30.10
2014,05,01,15,26,30.10
2014,05,01,15,27,30.30
2014,05,01,15,28,30.40
2014,05,01,15,29,30.50
2014,05,01,15,30,30.50
2014,05,01,15,31,30.60
2014,05,01,15,32,30.60
2014,05,01,15,33,30.60
2014,05,01,15,34,30.60
2014,05,01,15,35,30.60
2014,05,01,15,36,30.50
2014,05,01,15,37,30.50
2014,05,01,15,38,30.30
2014,05,01,15,39,30.20
2014,05,01,15,40,30.10
2014,05,01,15,41,30.00
2014,05,01,15,42,29.90
2014,05,01,15,43,29.90
2014,05,01,15,44,29.90
2014,05,01,15,45,29.90
2014,05,01,15,46,29.90
2014,05,01,15,47,29.90
2014,05,01,15,48,29.90
2014,05,01,15,49,30.00
2014,05,01,15,50,30.00
2014,05,01,15,51,30.00
2014,05,01,15,52,30.00
2014,05,01,15,53,30.00
2014,05,01,15,54,30.00
2014,05,01,15,55,29.90
2014,05,01,15,56,29.90
2014,05,01,15,57,29.80
2014,05,01,15,58,29.80
2014,05,01,15,59,29.80
2014,05,01,16,00,29.80
2014,05,01,16,01,29.80
2014,05,01,16,02,29.80
2014,05,01,16,03,29.70
2014,05,01,16,04,29.70
2014,05,01,16,05,29.70
2014,05,01,16,06,29.70
2014,05,01,16,07,29.60
2014,05,01,16,08,29.60
2014,05,01,16,09,29.60
2014,05,01,16,10,29.60
2014,05,01,16,11,29.50
2014,05,01,16,12,29.50
2014,05,01,16,13,29.40
2014,05,01,16,14,29.30
2014,05,01,16,15,29.30
2014,05,01,16,16,29.30
2014,05,01,16,17,29.20
2014,05,01,16,18,29.10
2014,05,01,16,19,29.00
2014,05,01,16,20,29.00
2014,05,01,16,21,28.90
2014,05,01,16,22,28.90
2014,05,01,16,23,28.80
2014,05,01,16,24,28.80
2014,05,01,16,25,28.90
2014,05,01,16,26,28.90
2014,05,01,16,27,28.90
2014,05,01,16,28,28.90
2014,05,01,16,29,28.90
2014,05,01,16,30,28.90
2014,05,01,16,31,28.80
2014,05,01,16,32,28.80
2014,05,01,16,33,28.80
2014,05,01,16,34,28.80
2014,05,01,16,35,28.80
2014,05,01,16,36,28.80
2014,05,01,16,37,28.80
2014,05,01,16,38,28.70
2014,05,01,16,39,28.70
2014,05,01,16,40,28.70
2014,05,01,16,41,28.70
2014,05,01,16,42,28.70
2014,05,01,16,43,28.70
2014,05,01,16,44,28.70
2014,05,01,16,45,28.70
2014,05,01,16,46,28.80
2014,05,01,16,47,28.80
2014,05,01,16,48,28.80
2014,05,01,16,49,28.80
2014,05,01,16,50,28.80
2014,05,01,16,51,28.80
2014,05,01,16,52,28.90
2014,05,01,16,53,28.90
2014,05,01,16,54,28.90
2014,05,01,16,55,28.90
2014,05,01,16,56,28.90
2014,05,01,16,57,28.90
2014,05,01,16,58,28.90
2014,05,01,16,59,28.80
2014,05,01,17,00,28.70
2014,05,01,17,01,28.70
2014,05,01,17,02,28.70
2014,05,01,17,03,28.70
2014,05,01,17,04,28.70
2014,05,01,17,05,28.70
2014,05,01,17,06,28.70
2014,05,01,17,07,28.70
2014,05,01,17,08,28.70
2014,05,01,17,09,28.70
2014,05,01,17,10,28.70
2014,05,01,17,11,28.70
2014,05,01,17,12,28.60
2014,05,01,17,13,28.60
2014,05,01,17,14,28.60
2014,05,01,17,15,28.70
2014,05,01,17,16,28.60
2014,05,01,17,17,28.60
2014,05,01,17,18,28.60
2014,05,01,17,19,28.50
2014,05,01,17,20,28.50
2014,05,01,17,21,28.50
2014,05,01,17,22,28.50
2014,05,01,17,23,28.50
2014,05,01,17,24,28.50
2014,05,01,17,25,28.40
2014,05,01,17,26,28.40
2014,05,01,17,27,28.40
2014,05,01,17,28,28.40
2014,05,01,17,29,28.40
2014,05,01,17,30,28.40
2014,05,01,17,31,28.40
2014,05,01,17,32,28.40
2014,05,01,17,33,28.40
2014,05,01,17,34,28.40
2014,05,01,17,35,28.40
2014,05,01,17,36,28.40
2014,05,01,17,37,28.40